FW8150 Weather Reports


time (UTC)temp
C
wind
direction
speed
KPH
gust
KPH
rain 1hr
cm
rain 24hr
cm
rain mn
cm
humidity
%
barometer
mb
20260504050340 16 239 1.6 4.8 0.00 0.00 0.00 67 1012.6
20260504045838 16 213 1.6 4.8 0.00 0.00 0.00 66 1012.7
20260504045338 16 145 3.2 3.2 0.00 0.00 0.00 66 1012.7
20260504044835 16 241 3.2 8.0 0.00 0.00 0.00 66 1012.8
20260504044332 16 152 0.0 8.0 0.00 0.00 0.00 66 1012.9
20260504043830 17 266 1.6 6.4 0.00 0.00 0.00 66 1012.7
20260504043326 16 232 1.6 3.2 0.00 0.00 0.00 67 1012.8
20260504042824 17 237 6.4 8.0 0.00 0.00 0.00 64 1012.7
20260504042320 16 228 3.2 6.4 0.00 0.00 0.00 65 1013.0
20260504041816 17 55 1.6 8.0 0.00 0.00 0.00 64 1013.0
20260504041312 17 199 4.8 8.0 0.00 0.00 0.00 64 1013.1
20260504040809 17 103 4.8 8.0 0.00 0.00 0.00 64 1013.0
20260504040306 16 97 3.2 3.2 0.00 0.00 0.00 66 1013.0
20260504035802 17 128 3.2 6.4 0.00 0.00 0.00 64 1012.9
20260504035259 17 217 3.2 11.3 0.00 0.00 0.00 64 1013.3
20260504034756 17 144 4.8 9.7 0.00 0.00 0.00 63 1013.3
20260504034254 17 125 3.2 8.0 0.00 0.00 0.00 63 1013.3
20260504033751 17 234 3.2 3.2 0.00 0.00 0.00 63 1013.6
20260504033249 17 141 3.2 6.4 0.00 0.00 0.00 64 1013.6
20260504032745 17 230 0.0 3.2 0.00 0.00 0.00 64 1013.6
20260504032242 17 154 0.0 6.4 0.00 0.00 0.00 65 1013.6
20260504031739 17 179 1.6 4.8 0.00 0.00 0.00 65 1013.7
20260504031237 17 169 3.2 3.2 0.00 0.00 0.00 63 1013.8
20260504030732 17 142 0.0 3.2 0.00 0.00 0.00 64 1013.6
20260504030230 17 157 3.2 4.8 0.00 0.00 0.00 62 1013.7
20260504025726 17 107 3.2 4.8 0.00 0.00 0.00 62 1013.8
20260504025223 17 117 4.8 4.8 0.00 0.00 0.00 62 1013.8
20260504024720 17 88 0.0 3.2 0.00 0.00 0.00 61 1013.7
20260504024217 17 180 3.2 4.8 0.00 0.00 0.00 62 1013.7
20260504023714 17 119 0.0 6.4 0.00 0.00 0.00 60 1013.5
20260504023209 17 154 3.2 3.2 0.00 0.00 0.00 61 1013.5
20260504022706 18 163 1.6 6.4 0.00 0.00 0.00 59 1013.3
20260504022202 18 147 1.6 4.8 0.00 0.00 0.00 60 1013.3
20260504021700 18 150 4.8 6.4 0.00 0.00 0.00 59 1013.2
20260504021156 18 80 1.6 3.2 0.00 0.00 0.00 60 1013.3
20260504020653 18 199 3.2 8.0 0.00 0.00 0.00 58 1013.1
20260504020149 18 181 1.6 6.4 0.00 0.00 0.00 59 1013.1
20260504015646 18 34 0.0 3.2 0.00 0.00 0.00 58 1013.1
20260504015142 18 205 0.0 4.8 0.00 0.00 0.00 60 1013.3
20260504014638 18 105 0.0 4.8 0.00 0.00 0.00 58 1013.2
20260504014136 18 209 3.2 4.8 0.00 0.00 0.00 57 1013.2
20260504013633 18 173 1.6 4.8 0.00 0.00 0.00 57 1013.2
20260504013130 18 195 0.0 3.2 0.00 0.00 0.00 57 1013.0
20260504012627 19 217 0.0 6.4 0.00 0.00 0.00 56 1013.0
20260504012125 19 145 3.2 3.2 0.00 0.00 0.00 56 1013.0
20260504011621 19 79 3.2 3.2 0.00 0.00 0.00 56 1012.9
20260504011118 19 89 0.0 4.8 0.00 0.00 0.00 55 1012.7
20260504010614 20 149 3.2 4.8 0.00 0.00 0.00 56 1012.9
20260504010110 20 129 0.0 3.2 0.00 0.00 0.00 54 1012.9
20260504005607 20 256 0.0 1.6 0.00 0.00 0.00 55 1012.8
20260504005104 20 141 0.0 1.6 0.00 0.00 0.00 54 1012.7
20260504004602 20 69 0.0 3.2 0.00 0.00 0.00 54 1012.7
20260504004059 20 205 0.0 6.4 0.00 0.00 0.00 52 1012.8
20260504003555 21 236 3.2 4.8 0.00 0.00 0.00 54 1012.8
20260504003052 21 144 4.8 4.8 0.00 0.00 0.00 50 1012.9
20260504002548 21 102 3.2 3.2 0.00 0.00 0.00 50 1012.8
20260504002046 21 249 0.0 3.2 0.00 0.00 0.00 51 1012.7
20260504001544 22 175 3.2 8.0 0.00 0.00 0.00 48 1012.7
20260504001039 22 79 1.6 4.8 0.00 0.00 0.00 48 1012.7
20260504000537 22 202 1.6 3.2 0.00 0.00 0.00 46 1012.9
20260504000034 22 122 3.2 6.4 0.00 0.00 0.00 45 1012.8
20260503235533 23 205 3.2 14.5 0.00 0.00 0.00 44 1012.9
20260503235029 23 225 1.6 11.3 0.00 0.00 0.00 44 1012.9
20260503234527 23 88 0.0 19.3 0.00 0.00 0.00 43 1012.8
20260503234025 23 266 6.4 11.3 0.00 0.00 0.00 42 1012.8
20260503233521 23 243 6.4 14.5 0.00 0.00 0.00 43 1013.0
20260503233017 23 251 9.7 14.5 0.00 0.00 0.00 43 1012.9
20260503232514 23 258 6.4 17.7 0.00 0.00 0.00 42 1012.9
20260503232012 23 266 3.2 12.9 0.00 0.00 0.00 43 1012.9
20260503231509 23 134 4.8 12.9 0.00 0.00 0.00 43 1013.0
20260503231006 23 255 24.1 24.1 0.00 0.00 0.00 41 1013.0
20260503230503 23 249 22.5 24.1 0.00 0.00 0.00 42 1013.1
20260503230000 23 261 6.4 16.1 0.00 0.00 0.00 41 1013.2
20260503225456 24 240 22.5 29.0 0.00 0.00 0.00 39 1013.2
20260503224952 24 256 4.8 19.3 0.00 0.00 0.00 40 1013.3
20260503224449 24 226 9.7 17.7 0.00 0.00 0.00 40 1013.2
20260503223947 24 233 4.8 29.0 0.00 0.00 0.00 40 1013.2
20260503223445 25 248 16.1 19.3 0.00 0.00 0.00 40 1013.3
20260503222940 24 183 9.7 17.7 0.00 0.00 0.00 39 1013.5
20260503222439 25 249 30.6 32.2 0.00 0.00 0.00 38 1013.6
20260503221937 25 230 8.0 16.1 0.00 0.00 0.00 39 1013.6
20260503221434 24 255 17.7 22.5 0.00 0.00 0.00 39 1013.3
20260503220931 24 225 12.9 25.7 0.00 0.00 0.00 39 1013.6
20260503220427 25 238 6.4 11.3 0.00 0.00 0.00 39 1013.6
20260503215925 24 244 16.1 30.6 0.00 0.00 0.00 39 1013.7
20260503215421 24 266 9.7 25.7 0.00 0.00 0.00 38 1013.8
20260503214919 24 225 11.3 22.5 0.00 0.00 0.00 38 1013.8
20260503214416 24 257 14.5 24.1 0.00 0.00 0.00 38 1013.8
20260503213914 24 253 9.7 22.5 0.00 0.00 0.00 39 1014.1
20260503213412 25 242 16.1 16.1 0.00 0.00 0.00 39 1014.0
20260503212908 25 246 16.1 20.9 0.00 0.00 0.00 39 1014.1
20260503212406 24 241 9.7 14.5 0.00 0.00 0.00 39 1014.2
20260503211903 24 269 16.1 27.4 0.00 0.00 0.00 38 1014.4
20260503211359 24 244 20.9 22.5 0.00 0.00 0.00 37 1014.4
20260503210854 23 251 20.9 32.2 0.00 0.00 0.00 38 1014.6
20260503210352 24 239 14.5 17.7 0.00 0.00 0.00 37 1014.6
20260503205847 23 252 11.3 22.5 0.00 0.00 0.00 37 1014.7
20260503205344 23 253 16.1 24.1 0.00 0.00 0.00 37 1014.9
20260503204840 23 245 24.1 27.4 0.00 0.00 0.00 37 1014.8
20260503204338 23 254 17.7 35.4 0.00 0.00 0.00 37 1015.2
20260503203835 23 217 3.2 25.7 0.00 0.00 0.00 37 1015.0
20260503203332 24 241 14.5 22.5 0.00 0.00 0.00 35 1015.2
20260503202829 23 197 8.0 30.6 0.00 0.00 0.00 36 1015.3
20260503202327 23 259 8.0 19.3 0.00 0.00 0.00 36 1015.4
20260503201825 23 216 4.8 16.1 0.00 0.00 0.00 36 1015.3
20260503201321 24 251 16.1 22.5 0.00 0.00 0.00 36 1015.3
20260503200819 24 218 4.8 14.5 0.00 0.00 0.00 38 1015.3
20260503200315 24 249 11.3 16.1 0.00 0.00 0.00 36 1015.4
20260503195813 23 250 12.9 17.7 0.00 0.00 0.00 37 1015.6
20260503195309 23 244 20.9 27.4 0.00 0.00 0.00 36 1015.8
20260503194806 23 281 8.0 9.7 0.00 0.00 0.00 36 1015.8
20260503194302 23 227 14.5 25.7 0.00 0.00 0.00 35 1016.1
20260503193758 23 246 14.5 17.7 0.00 0.00 0.00 35 1015.9
20260503193254 24 217 8.0 17.7 0.00 0.00 0.00 35 1016.0
20260503192750 23 88 3.2 20.9 0.00 0.00 0.00 36 1016.0
20260503192245 23 259 11.3 14.5 0.00 0.00 0.00 35 1016.1
20260503191743 23 249 12.9 16.1 0.00 0.00 0.00 36 1016.2
20260503191240 23 246 20.9 27.4 0.00 0.00 0.00 35 1016.5
20260503190737 22 125 4.8 22.5 0.00 0.00 0.00 35 1016.5
20260503190233 23 257 11.3 32.2 0.00 0.00 0.00 37 1016.5
20260503185731 22 162 6.4 16.1 0.00 0.00 0.00 36 1016.4
20260503185226 22 251 19.3 20.9 0.00 0.00 0.00 33 1016.7
20260503184721 22 163 8.0 14.5 0.00 0.00 0.00 36 1016.6
20260503184217 22 155 4.8 14.5 0.00 0.00 0.00 36 1016.9
20260503183714 22 161 9.7 27.4 0.00 0.00 0.00 36 1017.1
20260503183211 22 229 17.7 29.0 0.00 0.00 0.00 34 1017.0
20260503182709 21 147 9.7 19.3 0.00 0.00 0.00 39 1017.4
20260503182208 22 235 8.0 14.5 0.00 0.00 0.00 36 1017.3
20260503181703 22 236 9.7 19.3 0.00 0.00 0.00 36 1017.3
20260503181200 21 240 16.1 22.5 0.00 0.00 0.00 36 1017.6
20260503180657 21 253 14.5 24.1 0.00 0.00 0.00 36 1017.7
20260503180156 21 174 6.4 20.9 0.00 0.00 0.00 37 1017.8
20260503175652 22 160 4.8 14.5 0.00 0.00 0.00 35 1017.9
20260503175150 21 247 8.0 11.3 0.00 0.00 0.00 38 1018.1
20260503174646 21 183 4.8 24.1 0.00 0.00 0.00 37 1018.3
20260503174143 21 177 4.8 17.7 0.00 0.00 0.00 36 1018.3
20260503173638 20 250 4.8 19.3 0.00 0.00 0.00 36 1018.6
20260503173135 20 256 9.7 24.1 0.00 0.00 0.00 37 1018.6
20260503172632 21 230 9.7 16.1 0.00 0.00 0.00 40 1018.7
20260503172129 20 267 6.4 14.5 0.00 0.00 0.00 37 1018.8
20260503171625 20 248 16.1 19.3 0.00 0.00 0.00 37 1019.0
20260503171123 20 254 3.2 14.5 0.00 0.00 0.00 39 1019.3
20260503170620 20 225 9.7 17.7 0.00 0.00 0.00 38 1019.1
20260503170116 20 260 8.0 19.3 0.00 0.00 0.00 40 1019.1
20260503151012 15 248 17.7 29.0 0.00 0.00 0.00 51 1020.5
20260503150508 16 147 4.8 12.9 0.00 0.00 0.00 52 1020.5
20260503131401 10 176 4.8 8.0 0.00 0.00 0.00 73 1021.0
20260503130858 9 151 6.4 11.3 0.00 0.00 0.00 76 1020.9
20260503130356 8 238 0.0 6.4 0.00 0.00 0.00 80 1020.9
20260503110755 1 72 1.6 3.2 0.00 0.00 0.00 98 1020.4
20260503110252 1 175 0.0 3.2 0.00 0.00 0.00 98 1020.2
20260503100219 1 134 1.6 3.2 0.00 0.00 0.00 98 1020.6
20260503090148 1 56 0.0 3.2 0.00 0.00 0.00 98 1021.0
20260503081623 2 134 6.4 6.4 0.00 0.00 0.00 97 1021.0
20260503081121 1 126 1.6 3.2 0.00 0.00 0.00 97 1020.8
20260503080616 2 149 0.0 3.2 0.00 0.00 0.00 97 1020.9
20260503080113 1 101 0.0 1.6 0.00 0.00 0.00 97 1021.0
20260503072550 2 119 0.0 3.2 0.00 0.00 0.00 96 1021.2